{"data":{"norad_id":63917,"intl_designator":"2025-095AD","name":"STARLINK-34075","alt_names":[],"object_type":"PAYLOAD","status":"ACTIVE","operator":null,"country":"US","launch_date":"2025-05-10","launch_site_code":"AFETR","launch_vehicle":null,"mission":null,"orbit_class":"UNKNOWN","rcs_meters":null,"size_class":null,"mass_kg":null,"dimensions":null,"purposes":["comms"],"wikipedia_slug":null,"has_3d_model":false,"image_url":null,"decayed_at":null,"tle_current":{"epoch":"2026-05-25T03:34:08.258880Z","epoch_age_seconds":52419,"freshness":"FRESH","line1":"1 63917U 25095AD  26145.14870670  .00015203  00000+0  56043-3 0  9999","line2":"2 63917  43.0016 104.1994 0001339 264.7630  95.3069 15.27605041 59472","mean_motion":15.27605041,"eccentricity":0.0001339,"inclination_deg":43.0016,"raan_deg":104.1994,"arg_perigee_deg":264.763,"mean_anomaly_deg":95.3069,"bstar":0.00056043,"rev_number":5947,"period_min":94.265203462365,"perigee_km":482.05541252313,"apogee_km":483.89281807981,"semimajor_km":6861.1111153015,"source":"CELESTRAK","updated_at":"2026-05-25T13:38:20.181665Z"}}}